This demonstration page uses our WeatherBlox Daily Observations layout. Learn more.

Left ArrowRight Arrow

Hourly Observations for February 2, 2022

Temp ( °F °C ) Dew Point ( °F °C ) Humidity (%) Winds ( mph kmh ) Pressure ( in mb ) Visibility ( mi km ) Precip ( " mm )
12:53 am 00:53 Cloudy -6 -21.1 -11 -23.9 78 78 SW 5 7 30.72 1040 10 16 0.00 0.00
1:53 am 01:53 Cloudy -6 -21.1 -10 -23.3 83 83 SW 6 9 30.72 1040 10 16 0.00 0.00
2:53 am 02:53 Cloudy -6 -21.1 -10 -23.3 83 83 SW 7 11 30.73 1041 8 13 0.00 0.00
3:53 am 03:53 Mostly Cloudy -7 -21.7 -12 -24.4 79 79 SW 7 11 30.74 1041 8 13 0.00 0.00
4:53 am 04:53 Clear -11 -23.9 -16 -26.7 78 78 SW 9 15 30.76 1042 10 16 0.00 0.00
5:53 am 05:53 Mostly Cloudy -12 -24.4 -16 -26.7 81 81 SW 8 13 30.77 1042 10 16 0.00 0.00
6:53 am 06:53 Clear -13 -25 -18 -27.8 78 78 WSW 6 9 30.77 1042 10 16 0.00 0.00
7:53 am 07:53 Mostly Cloudy -14 -25.6 -18 -27.8 82 82 SSW 6 9 30.78 1042 10 16 0.00 0.00
8:53 am 08:53 Partly Cloudy -9 -22.8 -13 -25 82 82 Calm 30.76 1042 10 16 0.00 0.00
9:53 am 09:53 Sunny -4 -20 -9 -22.8 79 79 WSW 7 11 30.73 1041 10 16 0.00 0.00
10:53 am 10:53 Sunny -2 -18.9 -8 -22.2 75 75 WSW 10 17 30.73 1041 10 16 0.00 0.00
11:53 am 11:53 Sunny 0 -17.8 -7 -21.7 72 72 SW 6 9 30.68 1039 10 16 0.00 0.00
12:53 pm 12:53 Sunny 2 -16.7 -8 -22.2 63 63 SW 6 9 30.63 1037 10 16 0.00 0.00
1:53 pm 13:53 Sunny 3 -16.1 -8 -22.2 60 60 Calm 30.58 1036 10 16 0.00 0.00
2:53 pm 14:53 Sunny 4 -15.6 -9 -22.8 54 54 ESE 6 9 30.54 1034 10 16 0.00 0.00
3:53 pm 15:53 Sunny 5 -15 -8 -22.2 54 54 NNE 7 11 30.48 1032 10 16 0.00 0.00
4:53 pm 16:53 Sunny 4 -15.6 -8 -22.2 57 57 E 5 7 30.45 1031 10 16 0.00 0.00
5:53 pm 17:53 Clear -8 -22.2 -13 -25 78 78 Calm 30.45 1031 10 16 0.00 0.00
6:53 pm 18:53 Clear -8 -22.2 -14 -25.6 74 74 E 3 6 30.42 1030 10 16 0.00 0.00
7:53 pm 19:53 Clear -6 -21.1 -12 -24.4 75 75 E 3 6 30.39 1029 10 16 0.00 0.00
8:53 pm 20:53 Clear -11 -23.9 -17 -27.2 74 74 Calm 30.36 1028 10 16 0.00 0.00
9:53 pm 21:53 Clear -13 -25 -18 -27.8 78 78 WSW 5 7 30.34 1027 10 16 0.00 0.00
10:53 pm 22:53 Clear -12 -24.4 -17 -27.2 78 78 WSW 3 6 30.30 1026 10 16 0.00 0.00
11:53 pm 23:53 Clear -12 -24.4 -17 -27.2 78 78 Calm 30.29 1026 10 16 0.00 0.00

Powered by AerisWeather